Regional Weather Roundup
Issued by NWS

Home | Current Version | Previous Version | Text Only | Print | Product List | Glossary Off
Versions: 1 2 3 4 5 6 7 8 9 10 11 12 13 14 15 16 17 18 19 20 21 22 23 24 25 26 27 28 29 30 31 32 33 34 35 36 37 38 39 40 41 42 43 44 45 46 47 48 49 50

000
ASUS43 KDTX 170110
RWRMI
MICHIGAN HOURLY REGIONAL WEATHER ROUNDUP
NATIONAL WEATHER SERVICE DETROIT/PONTIAC MI
900 PM EDT MON OCT 16 2017

NOTE: "FAIR" INDICATES FEW OR NO CLOUDS BELOW 12,000 FEET WITH NO
SIGNIFICANT WEATHER AND/OR OBSTRUCTION TO VISIBILITY.

MIZ047>049-052>055-059>063-066>070-074>076-081>083-170200-
SOUTHEAST LOWER MICHIGAN

CITY           SKY/WX    TMP DP  RH WIND       PRES   REMARKS
ADRIAN         CLEAR     45  40  82 SW3       30.27S
ALMA           PTCLDY    47  38  69 SW5       30.22F
ANN ARBOR      CLEAR     38  38 100 CALM      30.25F
BAD AXE        CLEAR     43  35  75 S3        30.22F
CARO           CLEAR     42  37  83 CALM      30.22S
DETROIT CITY   CLEAR     48  40  73 S5        30.27S
DETROIT        PTCLDY    49  40  71 S7        30.27S
FLINT          PTCLDY    48  38  68 S6        30.24F
GROSSE ILE     CLEAR     48  40  75 CALM      30.26S
HILLSDALE      CLEAR     41  39  93 CALM      30.25S
HOWELL         CLEAR     46  39  78 CALM      30.24F

CITY           SKY/WX    TMP DP  RH WIND       PRES   REMARKS
JACKSON        CLEAR     44  40  85 CALM      30.25S
LAMBERTVILLE   CLEAR     45  41  86 CALM      30.27S
LANSING        CLEAR     47  39  74 CALM      30.24F
LAPEER         FAIR      44  38  78 S3        30.24F
MASON          CLEAR     46  42  88 CALM      30.24F
MONROE         CLEAR     45  40  83 CALM      30.26S
MT. CLEMENS    CLEAR     44  40  85 CALM      30.24S
PONTIAC        PTCLDY    46  39  76 CALM      30.24F
PORT HOPE        N/A     46  36  68 VRB3      30.19F
PORT HURON     CLEAR     39  36  87 CALM      30.25F
TRI CITIES     CLEAR     50  41  71 S5        30.22F
MIDLAND        FAIR      44  40  86 CALM      30.20F
TROY           CLEAR     48  37  66 CALM      30.27S
SAGINAW HB     CLEAR     46  39  76 S8        30.22S
$$
MIZ043>046-050>051-056>058-064>065-071>073-077>080-170200-
SOUTHWEST LOWER MICHIGAN

CITY           SKY/WX    TMP DP  RH WIND       PRES   REMARKS
BATTLE CREEK   CLEAR     45  40  82 S3        30.25S
BENTON HARBOR  CLEAR     46  42  86 CALM      30.23S
BIG RAPIDS     CLEAR     42  38  84 CALM      30.19F
COLDWATER      CLEAR     43  43  99 CALM      30.25F
FREMONT        FAIR      46  39  77 S3        30.19F
HOLLAND        CLEAR     45  41  86 S6        30.22F
GRAND RAPIDS   PTCLDY    46  40  79 S7        30.22F
IONIA          FAIR      47  37  67 SW5       30.22F
LUDINGTON      CLEAR     48  40  72 S6        30.15F
MARSHALL       CLEAR     42  42  97 CALM      30.24F
MOUNT PLEASANT PTCLDY    48  38  68 SW3       30.20F
MUSKEGON       PTCLDY    48  42  80 SE8       30.20F
SOUTH HAVEN    CLEAR     45  43  93 CALM      30.23S
$$
MIZ016>042-170200-
NORTHERN LOWER MICHIGAN

CITY           SKY/WX    TMP DP  RH WIND       PRES   REMARKS
ALPENA         PTCLDY    47  40  76 S6        30.16R
BEAVER ISLAND  PTCLDY    54  43  66 SW12G21   30.08F
BELLAIRE       CLOUDY    46  38  74 CALM      30.15S
CADILLAC       PTCLDY    46  37  70 S7        30.16F
CHARLEVOIX     CLEAR     49  40  68 S7        30.14F
FRANKFORT      PTCLDY    51  41  69 S7        30.14S
GAYLORD        PTCLDY    43  35  73 SW8       30.13F
GRAYLING       CLOUDY    46  35  67 S3        30.16F
HARBOR SPRINGS CLEAR     49  39  68 S8        30.11F
HOUGHTON LAKE  PTCLDY    49  37  63 SW6       30.17F
MANISTEE       CLEAR     46  39  76 CALM      30.16F
OSCODA         CLEAR     48  38  67 SW9G17    30.17F
PELLSTON       CLOUDY    49  39  68 S9        30.11F
ROGERS CITY    CLEAR     45  39  80 SW5       30.14S
TRAVERSE CITY  PTCLDY    49  37  63 CALM      30.14S
$$
MIZ007>008-015-170200-
EASTERN UPPER MICHIGAN

CITY           SKY/WX    TMP DP  RH WIND       PRES   REMARKS
KINROSS        PTCLDY    46  39  76 S3        30.08F
MACKINAC ISLAN MOCLDY    51  41  69 S12G17    30.09S
NEWBERRY       CLEAR     44  41  89 S6        30.05F
S. S. MARIE    PTCLDY    47  39  74 S7        30.07F
MUNISING         N/A     48  41  76 S7        30.02F
$$
MIZ004>006-011>014-085-170200-
CENTRAL UPPER MICHIGAN

CITY           SKY/WX    TMP DP  RH WIND       PRES   REMARKS
MANISTIQUE     CLEAR     53  38  56 SW13G23   30.05F
ESCANABA       CLEAR     53  38  56 SW10      30.06F
MENOMINEE      CLEAR     50  39  66 SW6       30.09F
SAWYER-GWINN   CLEAR     46  36  66 S10       30.02F
$$
MIZ001>003-009>011-084-170200-
WESTERN UPPER MICHIGAN

CITY           SKY/WX    TMP DP  RH WIND       PRES   REMARKS
IRON MOUNTAIN  CLEAR     47  34  60 S6        30.03F
HOUGHTON       CLOUDY    48  36  63 SW7       29.94F
COPPER HARBOR    N/A     51  41  68 SW6       29.93F
IRONWOOD       CLEAR     52  33  48 S16G23    29.95F
$$

ABBREVIATIONS USED IN REMARKS
   TC - TEMPERATURE IN CELSIUS
  WCI - WIND CHILL INDEX
   HX - HEAT INDEX
  VSB - VISIBILITY





USA.gov is the U.S. government's official web portal to all federal, state and local government web resources and services.